Wind_Speed
14 15 16 17 18 19 20 20 20 20 19 18 17 16 13 11 9 8 6 4 3 3 3 4 5 6 6 8 11 12 13 14 16 18 20 22 24 26 27 27 28 29 30
13 14 15 16 18 18 19 20 20 19 19 18 17 16 15 13 10 9 7 5 3 3 3 4 5 5 6 7 9 11 12 12 13 14 17 19 22 24 25 25 26 27 28
13 14 14 15 17 18 18 19 19 19 19 18 17 16 15 14 12 10 8 6 4 3 3 4 4 5 6 7 8 10 11 12 14 14 16 17 19 22 23 24 24 25 26
13 14 14 15 16 17 18 18 18 18 18 17 17 16 15 14 12 11 9 8 6 5 4 4 5 6 6 7 9 10 11 12 13 13 15 17 17 19 21 22 24 25 25
13 14 14 15 15 16 17 17 17 18 18 17 17 16 15 14 13 12 11 9 7 6 5 5 5 6 7 8 9 9 10 11 12 13 14 16 17 18 20 21 23 24 25
13 14 14 15 15 16 16 16 16 17 17 17 16 16 15 14 13 12 12 11 9 8 7 6 6 6 7 8 9 10 10 11 12 13 14 16 17 17 18 19 21 22 24
14 14 15 15 15 15 15 16 16 16 16 17 16 16 15 14 13 12 12 11 10 9 8 7 7 7 7 7 8 9 10 11 12 12 13 14 16 17 17 18 20 20 21
15 15 15 15 15 16 16 15 16 16 16 16 16 16 15 15 14 13 12 12 11 10 9 9 9 9 8 9 10 10 10 11 12 12 12 13 14 16 17 18 19 20 21
16 16 16 16 16 16 16 16 16 16 16 16 16 16 15 15 14 14 13 13 12 12 11 10 10 10 10 10 10 11 11 12 12 13 14 14 14 15 16 17 19 20 21
18 18 17 17 17 17 16 16 16 16 16 16 16 16 16 15 15 15 14 14 14 13 13 12 12 12 12 11 11 12 12 13 14 14 15 15 15 15 16 17 18 20 21
20 19 19 19 18 18 17 17 17 17 17 17 17 17 16 16 16 16 15 15 14 14 14 14 14 14 13 13 13 13 14 14 15 15 15 16 16 17 18 18 20 21 21
21 21 21 20 19 19 19 18 18 18 18 18 18 17 17 17 17 17 16 16 16 15 16 16 16 15 15 15 14 15 15 16 16 16 16 17 18 18 19 20 21 22 22
23 23 22 22 21 21 20 20 20 19 19 19 19 19 18 18 18 18 18 17 17 17 17 17 17 17 17 16 16 16 16 17 17 17 17 18 19 20 21 21 22 23 23
25 25 24 24 23 23 22 22 22 21 21 21 20 20 20 20 19 19 19 19 19 19 19 19 19 19 18 18 18 18 18 18 18 19 19 20 21 22 22 23 24 25 26
28 27 26 26 25 25 24 24 24 23 23 22 22 22 21 21 21 21 21 21 21 21 21 21 20 20 20 20 20 19 19 19 19 20 20 21 22 22 23 24 25 26 27
30 29 29 28 27 27 26 26 25 25 24 24 24 24 23 23 23 23 23 23 23 23 23 22 22 22 22 22 21 21 21 21 22 22 22 23 24 24 25 26 27 28 28
32 32 31 30 29 28 28 27 27 26 26 26 26 26 26 25 25 25 25 25 25 25 25 24 24 24 24 24 24 24 24 24 24 24 24 25 25 26 27 28 28 29 30
34 33 33 32 32 31 30 30 29 29 28 28 28 28 28 27 27 27 27 27 27 27 27 26 26 26 26 26 26 26 26 26 26 26 26 27 27 28 29 29 30 30 31
36 35 35 34 34 34 33 32 31 31 30 30 30 30 30 30 30 30 29 29 29 29 29 29 28 28 28 28 28 28 28 28 28 29 29 29 30 30 31 31 32 32 33
38 37 37 37 36 36 35 35 34 33 33 32 32 32 32 32 32 32 31 31 31 31 31 31 30 30 30 30 30 30 30 30 31 31 32 32 32 33 33 33 34 35 35
40 39 39 39 39 38 37 37 36 36 35 35 34 34 34 34 34 34 34 33 33 33 32 32 32 31 31 31 31 32 32 32 32 33 34 35 35 35 35 36 37 37 38
42 41 41 41 40 40 39 39 39 38 38 37 37 36 36 36 36 35 35 35 35 35 34 34 33 33 33 33 33 33 33 34 34 34 35 36 36 37 37 38 39 39 40
43 43 43 42 42 42 42 41 41 40 40 39 39 39 38 38 37 37 37 37 36 36 35 35 35 34 34 34 34 35 35 36 36 37 37 37 37 38 39 40 41 41 42
44 44 45 44 44 44 43 42 42 42 41 41 41 40 40 39 39 39 38 38 37 37 37 36 35 35 35 35 36 36 37 37 38 38 39 39 39 40 41 42 42 43 43
46 46 46 46 46 45 44 44 43 43 43 43 42 42 42 41 40 40 39 39 38 38 38 37 37 37 37 37 37 38 38 39 39 40 40 41 41 42 42 43 43 43 44
47 46 46 46 47 46 46 45 44 44 44 43 43 43 42 42 41 40 40 40 39 39 39 39 38 38 38 38 39 39 39 40 40 40 40 41 42 42 43 43 43 43 44
Wind_Direction
340 345 349 354 357 359 2 2 3 4 5 6 7 9 7 4 2 360 354 341 321 301 277 261 258 254 243 234 234 235 237 238 239 240 238 238 237 238 239 239 239 240 240
336 341 345 351 355 357 0 2 4 5 5 5 6 9 11 10 6 3 360 350 335 312 289 273 267 262 251 240 238 239 240 242 245 245 241 240 238 238 239 239 239 238 240
331 336 341 346 351 355 358 1 3 4 6 6 7 8 10 11 11 8 6 2 346 325 306 287 269 261 255 251 246 246 248 247 247 250 249 245 242 241 241 241 240 240 239
325 331 336 341 346 350 354 357 360 2 4 6 7 8 9 10 12 13 11 8 359 343 324 298 278 267 262 255 252 252 252 251 248 248 251 248 245 244 243 243 241 240 240
318 324 330 334 339 344 348 352 355 358 360 2 4 6 7 7 8 10 10 7 1 350 336 316 296 282 273 266 260 258 260 261 255 254 256 253 250 249 247 244 243 243 244
310 316 322 328 333 337 341 345 349 352 355 358 360 1 2 3 3 3 3 3 359 353 344 331 320 308 294 281 271 267 267 266 262 261 260 257 256 255 252 249 247 247 248
303 308 315 320 326 330 334 338 342 346 349 352 355 357 357 357 357 356 357 356 354 350 342 333 325 319 309 294 283 275 273 272 270 265 264 261 259 259 256 252 248 250 250
296 301 306 312 318 323 326 330 335 338 340 344 347 349 351 351 350 348 348 347 346 345 338 329 322 314 307 300 293 283 277 276 275 271 269 267 263 261 259 255 253 252 252
290 295 300 305 310 314 318 322 327 331 333 335 338 340 342 344 343 342 341 340 339 337 332 326 322 316 308 300 295 288 282 280 278 276 269 269 265 263 262 260 260 259 259
285 289 294 298 303 307 310 314 319 323 327 328 330 332 334 336 336 335 335 334 332 331 329 324 321 317 309 302 298 293 287 285 283 280 275 270 270 267 266 265 265 265 264
281 285 289 292 296 300 303 306 310 314 318 321 323 324 327 328 329 329 329 329 327 325 324 323 321 316 310 305 300 297 293 288 286 282 279 276 275 274 271 270 270 269 268
278 281 284 287 290 294 297 300 302 306 310 313 316 317 320 322 322 322 322 322 322 320 320 319 318 315 310 306 301 297 294 291 288 284 280 279 278 276 273 273 272 272 272
274 277 279 282 285 288 291 294 296 299 303 306 308 311 313 315 316 317 318 316 315 315 315 314 313 311 308 305 301 298 295 292 289 286 284 282 281 279 277 275 275 275 275
271 274 276 279 281 284 287 290 292 294 297 299 301 304 307 308 310 311 312 312 313 312 312 311 310 308 306 304 301 298 295 292 290 288 286 284 283 282 281 279 277 276 277
270 271 274 276 279 281 283 285 288 290 292 294 296 299 301 303 304 305 306 307 308 309 309 308 308 306 304 302 300 298 296 293 291 289 287 286 284 284 283 282 281 280 279
269 270 272 273 275 278 279 281 283 285 287 289 292 294 296 298 299 301 302 303 304 304 305 305 304 303 301 300 299 297 295 293 292 291 289 287 286 284 283 282 282 282 282
268 269 271 272 273 274 276 278 279 281 283 285 288 291 293 294 295 297 298 300 300 301 301 301 301 300 299 298 296 295 294 293 292 291 290 289 287 285 284 284 283 283 283
266 268 269 270 271 272 273 274 275 277 279 282 284 287 289 291 292 294 295 296 297 298 298 298 298 298 297 296 295 294 293 292 290 291 290 289 288 287 285 284 284 283 283
265 266 267 268 269 270 271 272 274 275 277 279 281 284 286 288 289 291 293 294 295 295 295 296 296 296 295 294 293 293 292 291 290 289 290 289 289 287 286 285 284 284 284
264 264 265 266 267 269 270 271 272 273 275 277 279 281 283 285 287 289 290 292 292 293 293 294 294 294 294 293 293 293 292 291 290 290 290 289 289 288 287 286 285 285 285
262 263 264 265 267 268 269 270 271 272 273 275 278 280 281 284 285 287 288 290 290 291 291 292 292 292 292 292 292 292 292 292 291 291 290 290 289 289 288 287 286 286 286
261 262 263 265 266 267 268 269 270 271 273 274 276 278 280 282 284 285 287 288 289 289 290 290 290 291 291 290 291 291 292 292 292 292 291 291 290 289 289 288 288 287 287
261 262 263 264 265 266 267 268 269 270 272 274 275 276 278 280 282 284 285 286 287 287 288 288 289 289 289 290 290 290 291 291 291 291 292 292 291 290 290 290 289 288 288
261 261 262 263 264 266 267 268 269 270 271 273 274 275 277 279 281 283 284 284 285 285 286 287 287 288 289 289 290 291 292 292 292 292 292 292 292 291 291 291 291 290 290
260 261 262 263 264 265 266 267 268 269 270 272 274 275 276 277 279 281 282 283 284 284 285 285 286 287 288 289 290 291 291 291 292 292 292 292 292 293 293 292 292 292 292
261 261 262 263 264 264 264 265 267 268 269 271 273 275 276 277 278 280 281 283 283 283 284 285 286 287 288 289 290 291 292 292 292 293 293 293 293 294 294 294 294 294 294
Height
5817 5814 5812 5808 5805 5801 5797 5793 5789 5785 5782 5778 5775 5771 5768 5766 5764 5763 5762 5761 5761 5761 5762 5763 5763 5764 5765 5767 5769 5771 5773 5776 5778 5780 5782 5784 5786 5789 5792 5795 5798 5801 5804
5816 5813 5811 5808 5805 5801 5798 5794 5790 5786 5782 5779 5776 5772 5770 5767 5765 5763 5762 5761 5761 5761 5762 5762 5762 5763 5764 5765 5767 5769 5770 5772 5774 5776 5777 5779 5781 5783 5786 5788 5791 5794 5797
5815 5812 5810 5807 5805 5801 5798 5794 5791 5787 5783 5780 5776 5773 5771 5768 5766 5764 5763 5762 5761 5761 5761 5761 5761 5762 5763 5764 5765 5767 5768 5769 5770 5772 5773 5774 5776 5778 5780 5782 5785 5788 5791
5813 5811 5809 5807 5804 5801 5798 5795 5791 5788 5784 5781 5778 5775 5772 5769 5767 5765 5763 5762 5761 5761 5760 5760 5761 5761 5761 5762 5763 5764 5765 5766 5767 5768 5769 5771 5772 5773 5775 5777 5780 5782 5785
5811 5810 5808 5805 5803 5800 5797 5794 5791 5788 5785 5782 5778 5775 5773 5770 5768 5766 5764 5763 5762 5761 5760 5760 5759 5760 5760 5760 5761 5761 5762 5763 5764 5765 5766 5766 5767 5768 5770 5772 5774 5776 5779
5809 5808 5806 5804 5802 5799 5797 5794 5791 5788 5785 5782 5779 5776 5773 5771 5769 5766 5765 5763 5762 5760 5760 5759 5759 5758 5758 5758 5759 5759 5760 5760 5761 5761 5762 5762 5763 5764 5765 5767 5769 5771 5773
5807 5805 5804 5802 5800 5798 5795 5793 5790 5787 5785 5782 5779 5776 5774 5771 5769 5767 5765 5763 5762 5760 5759 5758 5758 5757 5757 5756 5756 5756 5756 5757 5757 5758 5758 5758 5759 5760 5761 5762 5763 5765 5767
5803 5802 5801 5799 5797 5795 5793 5791 5789 5786 5784 5781 5779 5776 5774 5771 5769 5767 5765 5763 5762 5760 5759 5757 5757 5756 5755 5754 5754 5753 5753 5753 5753 5754 5754 5754 5755 5755 5756 5757 5758 5760 5762
5800 5799 5797 5796 5794 5793 5791 5789 5787 5784 5782 5780 5777 5775 5773 5770 5768 5766 5764 5762 5760 5759 5757 5756 5755 5753 5753 5752 5751 5750 5750 5750 5750 5750 5750 5750 5750 5751 5752 5753 5754 5755 5756
5795 5794 5793 5792 5791 5789 5788 5786 5784 5782 5780 5778 5775 5773 5771 5769 5767 5764 5762 5760 5759 5757 5755 5754 5752 5751 5750 5749 5748 5747 5747 5746 5746 5746 5746 5746 5746 5746 5747 5748 5748 5749 5750
5790 5790 5789 5788 5787 5786 5784 5782 5781 5779 5777 5775 5773 5771 5769 5767 5764 5762 5760 5758 5757 5755 5753 5751 5750 5748 5747 5746 5745 5744 5743 5742 5742 5741 5741 5741 5741 5741 5742 5742 5743 5743 5744
5784 5784 5784 5783 5782 5781 5780 5778 5777 5775 5773 5772 5770 5768 5766 5764 5762 5759 5757 5755 5754 5752 5750 5748 5746 5745 5743 5742 5741 5740 5739 5738 5737 5737 5736 5736 5736 5736 5736 5736 5736 5736 5737
5778 5778 5777 5777 5776 5775 5774 5773 5772 5771 5769 5768 5766 5764 5762 5760 5758 5756 5754 5752 5750 5748 5746 5745 5743 5741 5739 5738 5736 5735 5734 5733 5732 5732 5731 5731 5731 5730 5730 5730 5730 5729 5729
5771 5771 5771 5770 5770 5769 5768 5767 5766 5765 5764 5762 5761 5759 5758 5756 5754 5752 5750 5748 5746 5744 5742 5740 5738 5737 5735 5733 5732 5730 5729 5728 5727 5726 5726 5725 5725 5724 5724 5723 5723 5722 5722
5763 5763 5763 5763 5763 5762 5762 5761 5760 5759 5758 5757 5755 5754 5752 5751 5749 5747 5745 5743 5741 5739 5737 5735 5734 5732 5730 5728 5727 5725 5724 5723 5722 5721 5720 5719 5718 5717 5717 5716 5715 5715 5714
5755 5755 5755 5755 5755 5755 5754 5753 5753 5752 5751 5750 5749 5748 5746 5745 5743 5741 5739 5737 5735 5734 5732 5730 5728 5726 5724 5722 5721 5719 5718 5716 5715 5714 5713 5712 5711 5710 5709 5708 5707 5706 5705
5745 5746 5746 5746 5746 5746 5746 5745 5745 5744 5743 5743 5742 5740 5739 5738 5736 5734 5733 5731 5729 5727 5725 5723 5722 5720 5718 5716 5714 5713 5711 5710 5708 5707 5705 5704 5703 5701 5700 5699 5698 5697 5695
5735 5736 5736 5736 5737 5737 5737 5737 5736 5736 5735 5735 5734 5733 5731 5730 5729 5727 5725 5724 5722 5720 5718 5716 5714 5712 5710 5709 5707 5705 5703 5702 5700 5699 5697 5695 5694 5692 5691 5690 5688 5687 5685
5725 5725 5725 5726 5726 5727 5727 5727 5727 5727 5726 5726 5725 5724 5723 5722 5720 5719 5717 5716 5714 5712 5710 5708 5706 5704 5702 5700 5698 5697 5695 5693 5691 5690 5688 5686 5684 5683 5681 5679 5678 5676 5674
5713 5714 5714 5715 5715 5716 5716 5716 5716 5716 5716 5716 5716 5715 5714 5713 5711 5710 5708 5707 5705 5703 5701 5699 5697 5695 5693 5691 5690 5688 5686 5684 5682 5680 5678 5676 5674 5672 5670 5668 5666 5665 5663
5701 5701 5702 5703 5703 5704 5705 5705 5705 5705 5705 5706 5705 5705 5704 5703 5701 5700 5699 5697 5695 5693 5691 5690 5688 5686 5684 5682 5680 5678 5676 5674 5672 5670 5667 5665 5663 5661 5659 5657 5655 5653 5651
5687 5688 5689 5690 5691 5692 5693 5693 5693 5694 5694 5694 5694 5693 5693 5692 5691 5690 5688 5687 5685 5683 5681 5679 5677 5675 5673 5672 5670 5668 5665 5663 5661 5659 5656 5654 5651 5649 5647 5644 5642 5640 5637
5674 5675 5676 5677 5678 5679 5679 5680 5681 5681 5682 5682 5682 5681 5681 5680 5679 5678 5677 5675 5674 5672 5670 5668 5666 5665 5663 5661 5659 5656 5654 5652 5650 5647 5644 5642 5639 5637 5634 5631 5629 5626 5623
5659 5661 5662 5663 5664 5665 5666 5667 5668 5668 5669 5669 5669 5669 5668 5668 5667 5666 5665 5664 5662 5660 5659 5657 5655 5653 5651 5649 5647 5645 5642 5640 5637 5635 5632 5629 5626 5623 5621 5618 5614 5611 5608
5645 5646 5647 5649 5650 5651 5652 5653 5654 5655 5655 5656 5656 5656 5655 5655 5654 5654 5653 5651 5650 5648 5646 5645 5643 5641 5639 5637 5635 5632 5630 5627 5624 5622 5619 5616 5613 5610 5607 5603 5600 5597 5593
5629 5631 5632 5634 5635 5636 5637 5639 5640 5641 5641 5642 5642 5642 5642 5642 5641 5641 5640 5638 5637 5635 5634 5632 5631 5629 5627 5625 5622 5620 5617 5615 5612 5609 5606 5603 5599 5596 5592 5589 5585 5582 5578